Regional Weather Roundup
Issued by NWS Columbia, SC

Home | Current Version | Previous Version | Text Only | Print | Product List | Glossary On
Versions: 1 2 3 4 5 6 7 8 9 10 11 12 13 14 15 16 17 18 19 20 21 22 23 24 25 26 27 28 29 30 31 32 33 34 35 36 37 38 39 40 41 42 43 44 45 46 47 48 49 50
249
ASUS42 KCAE 112310
RWRCAE
REGIONAL WEATHER ROUNDUP
NATIONAL WEATHER SERVICE COLUMBIA SC
600 PM EST THU FEB 11 2016

NOTE: "FAIR" INDICATES FEW OR NO CLOUDS BELOW 12,000 FEET WITH NO
SIGNIFICANT WEATHER AND/OR OBSTRUCTIONS TO VISIBILITY.

NOT ALL STATIONS ARE QUALITY CONTROLLED BY THE NATIONAL
WEATHER SERVICE. USE DATA WITH CAUTION...ESPECIALLY
DEWPOINT OBSERVATIONS.

SCZ001>056-GAZ040-063>065-077-120000-
...UPSTATE SOUTH CAROLINA...

CITY           SKY/WX    TMP DP  RH WIND       PRES   REMARKS
ANDERSON       CLEAR     48  24  39 S6        30.14R
LIBERTY        CLEAR     49  24  37 SW5       30.13R
SPARTANBURG    CLEAR     43  21  42 CALM      30.15R
CLEMSON        CLEAR     52  24  33 CALM      30.14R
GREENVILLE     CLEAR     48  22  35 SW5       30.14R
GREENWOOD      CLEAR     49  24  37 W7        30.17R
GREER          CLEAR     45  23  42 NE6       30.13R
ROCK HILL      CLEAR     43  20  39 W3        30.16R
LAURENS        CLEAR     46  27  46 W3        30.15R


...CENTRAL SOUTH CAROLINA...

CITY           SKY/WX    TMP DP  RH WIND       PRES   REMARKS
COLUMBIA APT   CLEAR     52  23  32 CALM      30.17R
COLUMBIA OWENS CLEAR     52  24  33 CALM      30.18R
MCENTIRE ANGB  CLEAR     51  24  34 CALM      30.17R
ORANGEBURG     CLEAR     53  23  31 W3        30.17R
SUMTER SHAW    CLEAR     45  25  45 NE3       30.15R
NEWBERRY       CLEAR     50  27  40 W5        30.19R
AIKEN          FAIR      50  25  37 CALM      30.19R
BARNWELL       FAIR      54  30  40 CALM      30.17R
MANNING        FAIR      43  30  61 CALM      30.18R
CAMDEN         FAIR      46  46 100 CALM      30.18R
LANCASTER      CLEAR     46  19  34 CALM      30.17R
WINNSBORO      CLEAR     46  23  39 CALM      30.16R


...EASTERN AND COASTAL SOUTH CAROLINA...

CITY           SKY/WX    TMP DP  RH WIND       PRES   REMARKS
N MYRTLE BCH   CLEAR     43  30  60 SW8       30.21R
MARION         FAIR      45  21  39 W5        30.20R
HARTSVILLE     FAIR      45  25  45 CALM      30.17R
FLORENCE       CLEAR     46  22  38 CALM      30.19R
DARLINGTON     CLEAR     46  21  36 W3        30.20R
CHARLESTON APT PTCLDY    47  28  47 S6        30.18R
MOUNT PLEASANT FAIR      46  32  57 S5        30.19S
WALTERBORO     CLEAR     52  32  46 SE5       30.18R
BEAUFORT       CLEAR     48  35  60 S6        30.19R


...EASTERN GEORGIA...

CITY           SKY/WX    TMP DP  RH WIND       PRES   REMARKS
AUGUSTA BUSH F CLEAR     53  25  33 SW3       30.16R
AUGUSTA DANIEL CLEAR     54  24  31 SW3       30.16R HAZE
THOMSON        CLEAR     55  31  39 CALM      30.20R
WASHINGTON     FAIR      55  34  44 CALM      30.16R
CLAXTON        FAIR      60  44  54 CALM      30.14R
SYLVANIA       CLEAR     56  40  54 CALM      30.16R
STATESBORO     CLEAR     57  34  42 CALM      30.15R
SAVANNAH       CLEAR     53  33  46 SE9       30.17R


...SOUTHERN NORTH CAROLINA...

CITY           SKY/WX    TMP DP  RH WIND       PRES   REMARKS
CHARLOTTE      PTCLDY    44  16  32 CALM      30.16R
MONROE         CLEAR     43  19  38 W3        30.15R
WADESBORO      CLEAR     42  16  34 CALM      30.18R
ROCKINGHAM     CLEAR     42  19  39 CALM      30.18S
RUTHERFORDTON  CLEAR     43  19  37 NW5       30.15R
ASHEVILLE      CLEAR     35  17  47 N17       30.13R WCI  25

$$




USA.gov is the U.S. government's official web portal to all federal, state and local government web resources and services.